Weather in Neuss

Germany     51°11′30″N   6°41′41″E
temp.,
°C
wind,
m/s
gust,
m/s
humid.,
%
clouds,
%
prec.,
mm/h
press.,
hPa
HPBL,
m
8 march, mon
mon801:00+3nnw248090 0.0 1024413
04:00+3nnw2485100 0.2 1023386
07:00+2wnw138998 0.2 1023241
10:00+3w2285100 0.1 1024232
13:00+4wnw1287100 0.3 1023247
16:00+6n1272100 0.1 1022540
19:00+5ene1180100 0.3 1022143
22:00+4sw1379100 0.0 1022146
9 march, tue
tue901:00+4w2483100 0.2 1021424
04:00+3sw3694100 0.1 1019397
07:00+3sw4695100 0.7 1019334
10:00+4wsw4891100 1.4 1018470
13:00+5wsw4789100 2.6 1018460
16:00+6w3788100 2.0 1017562
19:00+6w488591 2.6 1018623
22:00+5w279056 0.2 1019354
10 march, wed
wed1001:00+4w249269 0.3 1019259
04:00+4wsw2591100 0.1 1019286
07:00+4sw3785100 0.1 1019375
10:00+6sw3674100 0.0 1020409
13:00+9sw4759100 0.0 10191029
16:00+10sw5958100 0.0 10171273
19:00+9s41064100 0.0 10161045
22:00+8ssw51265100 0.0 10141028
11 march, thu
thu1101:00+8s61469100 0.7 10111192
04:00+8ssw61570100 0.7 10081028
07:00+9ssw61672100 0.7 10051053
10:00+9sw71778100 0.6 10041161
13:00+9sw81675100 2.1 10031615
16:00+11wsw9175998 0.6 10031885
19:00+9wsw8176198 0.8 10041884
22:00+8wsw8166564 0.0 10061579
12 march, fri
fri1201:00+7wsw8156875 0.1 10081515
04:00+6wsw7147247 0.0 10091342
07:00+5sw6137560 0.0 10101178
10:00+7sw71267100 0.0 10111269
13:00+9sw81357100 0.1 10101615
16:00+9sw81559100 0.1 10081755
19:00+7wsw71381100 2.0 10071216
22:00+7sw51278100 0.3 10071166